EHI
0 0 0 0 0 0 0 0 0 0 0 0 0 0 0 0 0 0 0 0 0 0 0 0 0 0 0 0 0 0 0 0 0 0 0 0 0 0
0 0 0 0 0 0 0 0 0 0 0 0 0 0 0 0 0 0 0 0 0 0 0 0 0 0 0 0 0 0 0 0 0 0 0 0 0 0
0 0 0 0 0 0 0 0 0 0 0 0 0 0 0 0 0 0 0 0 0 0 0 0 0 0 0 0 0 0 0 0 0 0 0 0 0 0
0 0 0 0 0 0 0 0 0 0 0 0 0 0 0 0 0 0 0 0 0 0 0 0 0 0 0 0 0 0 0 0 0 0 0 0 0 0
0 0 0 0 0 0 0 0 0 0 0 0 0 0 0 0 0 0 0 0 0 0 0 0 0 0 0 0 0 0 0 0 0 0 0 0 0 0
0 0 0 0 0 0 0 0 0 0 0 0 0 0 0 0 0 0 0 0 0 0 0 0 0 0 0 0 0 0 0 0 0 0 0 0 0 0
0 0 0 0 0 0 0 0 0 0 0 0 0 0 0 0 0 0 0 0 0 0 0 0 0 0 0 0 0 0 0 0 0 0 0 0 0 0
0 0 0 0 0 0 0 0 0 0 0 0 0 0 0 0 0 0 0 0 0 0 0 0 0 0 0 0 0 0 0 0 0 0 0 0 0 0
0 0 0 0 0 0 0 0 0 0 0 0 0 0 0 0 0 0 0 0 0 0 0 0 0 0 0 0 0 0 0 0 0 0 0 0 0 0
0 0 0 0 0 0 0 0 0 0 0 0 0 0 0 0 0 0 0 0 0 0 0 0 0 0 0 0 0 0 0 0 0 0 0 0 0 0
0 0 0 0 0 0 0 0 0 0 0 0 0 0 0 0 0 0 0 0 0 0 0 0 0 0 0 0 0 0 0 0 0 0 0 0 0 0
0 0 0 0 0 0 0 0 0 0 0 0 0 0 0 0 0 0 0 0 0 0 0 0 0 0 0 0 0 0 0 0 0 0 0 0 0 0
0 0 0 0 0 0 0 0 0 0 0 0 0 0 0 0 0 0 0 0 0 0 0 0 0 0 0 0 0 0 0 0 0 0 0 0 0 0
0 0 0 0 0 0 0 0 0 0 0 0 0 0 0 0 0 0 0 0 0 0 0 0 0 0 0 0 0 0 0 0 0 0 0 0 0 0
0 0 0 0 0 0 0 0 0 0 0 0 0 0 0 0 0 0 0 0 0 0 0 0 0 0 0 0 0 0 0 0 0 0 0 0 0 0
0 0 0 0 0 0 0 0 0 0 0 0 0 0 0 0 0 0 0 0 0 0 0 0 0 0 0 0 0 0 0 0 0 0 0 0 0 0
0 0 0 0 0 0 0 0 0 0 0 0 0 0 0 0 0 0 0 0 0 0 0 0 0 0 0 0 0 0 0 0 0 0 0 0 0 0
0 0 0 0 0 0 0 0 0 0 0 0 0 0 0 0 0 0 0 0 0 0 0 0 0 0 0 0 0 0 0 0 0 0 0 0 0 0
0 0 0 0 0 0 0 0 0 0 0 0 0 0 0 0 0 0 0 0 0 0 0 0 0 0 0 0 0 0 0 0 0 0 0 0 0 0
0 0 0 0 0 0 0 0 0 0 0 0 0 0 0 0 0 0 0 0 0 0 0 0 0 0 0 0 0 0 0 0 0 0 0 0 0 0
0 0 0 0 0 0 0 0 0 0 0 0 0 0 0 0 0 0 0 0 0 0 0 0 0 0 0 0 0 0 0 0 0 0 0 0 0 0
0 0 0 0 0 0 0 0 0 0 0 0 0 0 0 0 0 0 0 0 0 0 0 0 0 0 0 0 0 0 0 0 0 0 0 0 0 0
0 0 0 0 0 0 0 0 0 0 0 0 0 0 0 0 0 0 0 0 0 0 0 0 0 0 0 0 0 0 0 0 0 0 0 0 0 0
Wind_Speed
3 3 2 1 1 2 2 2 3 2 2 3 2 2 2 2 4 4 5 7 8 9 9 9 9 9 9 9 9 9 9 9 10 10 10 10 11 12
3 3 2 2 2 2 2 2 2 3 3 2 3 2 2 3 4 5 6 8 9 10 10 11 11 11 11 11 11 11 11 11 11 11 11 11 11 11
4 4 5 3 3 3 2 2 3 3 4 3 2 2 3 4 3 3 5 5 6 10 12 12 13 13 13 13 12 12 12 12 12 12 12 12 12 12
6 5 5 4 4 4 3 4 4 5 5 5 3 3 4 4 4 4 5 5 6 9 12 14 14 14 15 14 14 14 14 13 13 13 13 13 13 13
6 6 5 5 5 4 5 4 4 4 5 5 5 3 3 3 4 4 5 5 6 8 11 13 15 15 16 16 15 15 15 14 14 14 14 14 14 14
5 5 4 5 5 5 4 5 4 4 5 5 5 5 4 4 3 4 5 5 6 6 8 9 11 14 15 16 16 16 16 16 16 15 15 15 15 15
2 2 2 2 3 3 2 3 3 4 4 5 5 5 5 4 4 4 6 7 7 6 7 7 7 7 9 11 14 16 16 16 16 16 16 16 16 16
1 2 2 2 3 3 2 1 1 2 3 4 4 6 6 5 4 5 6 6 7 3 4 6 5 8 8 8 11 14 16 16 17 17 17 17 17 17
3 3 3 4 3 2 2 3 2 2 3 4 5 6 6 5 5 7 7 8 9 6 6 10 8 10 9 10 14 16 17 17 17 17 18 18 18 18
4 4 3 3 4 4 3 3 3 3 4 3 4 6 6 6 6 7 9 10 10 8 7 10 10 11 10 9 13 16 17 18 18 18 18 18 18 18
4 4 4 3 6 7 4 4 5 5 4 5 7 8 11 12 9 6 6 7 9 7 5 7 9 10 10 10 11 15 17 18 18 18 19 18 18 17
3 3 5 5 6 7 4 4 5 6 6 7 7 8 8 9 10 7 7 7 8 7 4 5 7 6 8 7 7 8 10 13 17 18 18 18 18 12
2 3 3 7 8 8 5 3 6 7 6 6 6 6 6 5 6 6 6 7 9 9 6 6 8 9 10 10 9 9 10 10 11 12 15 18 18 15
2 3 4 7 8 8 5 6 8 7 4 5 5 6 6 6 7 8 9 9 10 12 11 10 10 10 12 13 12 9 9 10 10 11 11 12 14 17
3 6 8 8 8 6 7 9 7 4 4 5 6 6 6 7 8 8 9 10 11 11 11 11 11 10 11 13 13 12 12 11 10 11 11 11 11 10
4 6 7 7 6 6 7 6 5 5 5 5 6 7 7 7 8 8 9 9 9 10 10 11 11 12 12 13 13 13 12 11 10 11 12 12 11 11
4 3 4 5 6 6 6 6 6 6 5 6 6 7 8 8 9 8 8 8 9 11 11 9 9 10 13 13 13 13 13 13 12 12 11 13 12 12
4 4 5 5 6 7 7 7 7 7 7 7 7 7 8 8 9 9 9 9 10 10 11 10 10 11 11 10 13 14 13 12 11 11 11 13 14 12
4 5 5 6 7 7 7 7 8 8 8 7 8 8 8 8 9 9 9 9 10 10 10 10 9 10 13 14 10 11 12 12 11 12 12 13 14 13
5 5 6 7 7 7 7 7 8 8 8 8 8 8 8 9 9 10 10 11 11 11 12 10 10 10 12 14 13 12 13 14 12 13 13 12 13 14
6 6 7 7 7 7 7 7 8 8 9 9 8 9 9 9 10 10 11 14 13 12 12 12 11 14 12 10 12 12 11 14 16 13 13 12 13 12
7 7 7 8 8 8 8 8 8 8 9 9 9 9 9 9 11 13 12 12 11 12 14 12 13 11 10 12 14 14 14 13 14 19 21 19 13 13
7 8 8 8 8 7 7 9 10 9 9 9 9 9 10 10 10 11 12 12 12 13 13 13 11 10 10 11 12 12 16 15 11 11 12 16 22 23
Wind_Direction
182 180 181 189 181 176 164 160 158 200 265 278 283 289 266 251 249 239 241 245 243 241 242 245 248 250 253 257 260 261 261 260 258 256 256 257 258 257
192 192 204 208 201 190 182 180 175 179 227 255 257 277 286 276 248 238 242 249 251 249 247 248 250 251 252 253 254 254 255 256 256 254 253 252 252 253
203 204 218 208 206 205 197 190 192 185 224 259 245 259 263 267 273 253 249 248 252 251 251 251 250 250 251 252 252 251 251 250 250 250 250 249 249 249
213 210 223 213 215 213 204 209 210 205 218 253 254 247 249 258 263 266 260 251 249 252 250 250 250 249 248 248 249 249 249 248 247 246 246 246 246 247
210 211 222 214 228 225 219 223 226 223 221 244 264 252 256 254 264 267 265 263 260 256 251 250 249 248 247 246 246 247 247 247 246 245 245 244 244 245
219 218 225 224 237 239 234 235 234 235 231 242 261 266 265 260 252 267 277 267 267 269 261 258 253 250 247 245 245 244 244 243 243 243 243 243 243 243
238 223 224 231 242 242 248 250 242 245 248 253 264 272 273 267 265 266 276 285 276 259 263 262 259 259 256 251 247 245 243 241 240 240 240 240 240 241
59 50 56 38 32 36 25 9 325 255 260 259 268 274 281 281 281 276 282 286 285 257 257 272 262 262 260 255 248 244 243 242 241 240 239 239 238 238
73 62 58 48 38 14 358 355 332 309 282 265 272 278 286 292 295 288 277 271 270 278 279 279 270 267 264 260 246 242 243 243 242 242 240 239 238 237
66 65 62 34 23 9 356 350 328 313 297 280 268 276 280 283 274 276 279 278 272 265 256 270 272 269 269 262 250 244 244 245 245 244 243 241 239 238
53 44 38 30 10 8 1 337 323 316 308 305 294 290 287 285 281 279 275 275 279 276 249 259 273 276 274 268 257 244 243 245 246 246 245 244 242 240
39 29 21 5 353 356 349 331 318 314 320 320 312 306 298 293 289 270 267 272 278 282 254 253 276 287 283 268 264 266 259 253 249 248 247 246 243 243
21 359 346 344 343 338 330 303 288 296 303 304 304 304 304 298 293 284 269 264 272 272 273 274 279 277 272 278 277 272 268 268 264 258 249 244 240 232
355 334 325 330 332 330 325 313 311 312 309 309 309 309 309 306 303 297 287 277 267 271 277 274 272 273 275 277 278 273 267 267 265 264 262 254 244 233
336 332 333 336 335 331 328 328 329 327 321 314 311 308 305 301 302 299 295 288 282 276 274 269 267 271 268 271 276 275 275 272 264 262 261 257 254 247
342 334 334 337 337 326 327 331 331 320 311 306 306 305 305 304 301 301 299 300 296 294 287 277 270 268 269 270 271 273 270 267 265 263 263 260 254 247
334 340 348 345 344 340 334 329 325 322 316 310 308 308 307 305 303 303 296 296 292 295 298 294 281 270 265 267 269 268 268 265 263 262 260 261 256 249
3 349 341 337 331 328 325 322 320 318 316 312 308 306 305 304 303 301 295 292 291 292 293 295 295 293 284 269 243 259 265 265 265 260 256 259 260 254
5 344 334 328 323 319 316 313 312 312 310 306 305 305 303 303 301 300 297 293 291 290 290 289 286 284 286 286 272 236 260 269 268 264 257 254 258 259
350 338 330 324 320 316 314 313 312 311 309 307 306 304 304 303 302 299 297 295 295 295 292 286 280 276 276 283 286 280 257 263 267 265 262 259 258 259
337 330 324 320 317 314 311 310 309 309 309 309 306 306 306 304 301 299 297 296 293 292 291 290 286 281 278 278 276 273 269 251 248 257 262 261 260 257
329 325 321 318 316 313 312 312 311 310 311 309 308 307 305 301 299 299 297 296 293 290 289 288 289 286 278 275 278 281 282 277 259 248 246 246 252 253
328 323 319 318 317 316 316 315 313 310 310 310 308 306 304 300 297 294 292 291 292 292 292 293 292 287 281 276 278 279 281 283 278 272 262 246 239 245